Voltar ao catálogo

KAIHAN 2

AtivoComunicaçõesLEO
NORAD 58850·PAYLOAD·🇮🇷 Iran
Este nome de satélite ainda não foi confirmado por fontes oficiais.

Lançado Jan 28, 2024 de Semnan Space Center

Loading…

Próximas Passagens (próximas 24 horas)

TLE

AtualizadoSource: Space-Track

Época: Sep 14, 2026, 11:27 UTC

1 58850U 24018B   26257.47725635  .00001361  00000-0  16482-3 0  9997
2 58850  58.6935 262.8464 0408110 213.9941 143.4324 14.44358585138290

Acompanhe KAIHAN 2 em tempo real com AllMySat

Download on the App Store